York, PA

6:48 AM EDT on July 25, 2017 (GMT -0400)
York

Weather History for KTHV - January, 2013

Change the Weather History Date:

Thursday, January 31, 2013

  Actual Average Record
Temperature  
Mean Temperature 41 °F -  
Max Temperature 55 °F 0 °F 62 °F (2012)
Min Temperature 27 °F - 3 °F (2000)
Degree Days  
Heating Degree Days 24    
Moisture  
Dew Point 29 °F    
Average Humidity 64    
Maximum Humidity 94    
Minimum Humidity 42    
Precipitation  
Precipitation 0.00 in - - ()
Sea Level Pressure  
Sea Level Pressure 29.51 in    
Wind  
Wind Speed 11 mph (West)    
Max Wind Speed 26 mph    
Max Gust Speed 38 mph    
Visibility 8 miles    
Events Rain , Snow    
Averages and records for this station are not official NWS values.
T = Trace of Precipitation, MM = Missing Value Source: NWS Daily Summary

Daily Weather History Graph

Daily Weather History Graph

Search for Another Location

Airport or City:

Trip Planner

Search our weather history database for the weather conditions in past years. The results will help you decide how hot, cold, wet, or windy it might be!

Date:

Astronomy

Jan. 31, 2013 Rise Set
Actual Time 7:16 AM EST 5:25 PM EST
Civil Twilight 6:47 AM EST 5:54 PM EST
Nautical Twilight 6:15 AM EST 6:26 PM EST
Astronomical Twilight 5:43 AM EST 6:58 PM EST
Moon 10:25 PM EST (1/31) 9:15 AM EST (1/31)
Length of Visible Light 11h 06m
Length of Day
10h 09m
Waning Gibbous, 80% of the Moon is Illuminated
Jan 31
Waning Gibbous
Feb 3
Last Quarter
Feb 10
New
Feb 17
First Quarter
Feb 25
Full

Hourly Weather History & Observations

Time (EST) Temp. Windchill Dew Point Humidity Pressure Visibility Wind Dir Wind Speed Gust Speed Precip Events Conditions
12:53 AM 55.9 °F - 54.0 °F 93% 29.17 in 4.0 mi South 3.5 mph - N/A Rain Rain
1:06 AM 55.4 °F - 53.6 °F 94% 29.18 in 2.0 mi SSW 6.9 mph - N/A Rain Heavy Rain
1:18 AM 55.4 °F - 53.6 °F 94% 29.17 in 1.5 mi South 4.6 mph - N/A Rain Heavy Rain
1:26 AM 55.4 °F - 53.6 °F 94% 29.15 in 2.5 mi SSW 5.8 mph - N/A Rain Heavy Rain
1:37 AM 55.4 °F - 53.6 °F 94% 29.15 in 5.0 mi South 4.6 mph - N/A Rain Light Rain
1:53 AM 54.0 °F - 52.0 °F 93% 29.22 in 5.0 mi West 12.7 mph 24.2 mph N/A Rain Light Rain
2:05 AM 53.6 °F - 51.8 °F 94% 29.19 in 6.0 mi WSW 8.1 mph - N/A Rain Rain
2:53 AM 52.0 °F - 50.0 °F 93% 29.17 in 9.0 mi WSW 5.8 mph - N/A Rain Light Rain
3:53 AM 52.0 °F - 46.9 °F 83% 29.19 in 10.0 mi West 10.4 mph 24.2 mph N/A Rain Light Rain
4:53 AM 46.0 °F 38.0 °F 33.1 °F 61% 29.26 in 10.0 mi West 21.9 mph 33.4 mph N/A   Overcast
5:53 AM 44.1 °F 35.4 °F 28.9 °F 55% 29.33 in 10.0 mi West 21.9 mph 38.0 mph N/A   Overcast
6:53 AM 39.0 °F 27.8 °F 24.1 °F 55% 29.42 in 10.0 mi West 26.5 mph 38.0 mph N/A   Scattered Clouds
7:53 AM 39.0 °F 31.8 °F 23.0 °F 53% 29.47 in 10.0 mi West 11.5 mph 20.7 mph N/A   Mostly Cloudy
8:53 AM 39.0 °F 30.3 °F 23.0 °F 53% 29.52 in 10.0 mi West 16.1 mph 24.2 mph N/A   Scattered Clouds
9:53 AM 37.0 °F 25.6 °F 21.9 °F 54% 29.56 in 10.0 mi West 24.2 mph 32.2 mph N/A   Mostly Cloudy
10:53 AM 39.0 °F 29.6 °F 19.9 °F 46% 29.58 in 10.0 mi WNW 18.4 mph 25.3 mph N/A   Scattered Clouds
11:53 AM 41.0 °F 31.4 °F 21.9 °F 47% 29.61 in 10.0 mi West 21.9 mph 33.4 mph N/A   Scattered Clouds
12:53 PM 37.0 °F 25.4 °F 16.0 °F 42% 29.64 in 10.0 mi West 25.3 mph 33.4 mph N/A   Scattered Clouds
1:53 PM 36.0 °F 25.0 °F 17.1 °F 46% 29.66 in 10.0 mi West 20.7 mph 34.5 mph N/A   Mostly Cloudy
2:53 PM 36.0 °F 26.0 °F 16.0 °F 44% 29.69 in 10.0 mi WNW 17.3 mph 29.9 mph N/A   Mostly Cloudy
3:53 PM 33.1 °F 21.5 °F 17.1 °F 52% 29.72 in 10.0 mi West 19.6 mph 32.2 mph 0.00 in   Overcast
4:53 PM 32.0 °F 23.0 °F 19.0 °F 59% 29.75 in 10.0 mi West 11.5 mph 29.9 mph 0.00 in   Mostly Cloudy
5:53 PM 30.9 °F 20.2 °F 19.0 °F 61% 29.78 in 10.0 mi WNW 15.0 mph 20.7 mph N/A   Overcast
6:53 PM 30.0 °F 19.1 °F 15.1 °F 54% 29.84 in 9.0 mi West 15.0 mph 32.2 mph 0.00 in Snow Light Snow
7:53 PM 28.9 °F 17.3 °F 10.0 °F 45% 29.87 in 10.0 mi West 16.1 mph 25.3 mph 0.00 in   Mostly Cloudy
8:53 PM 28.0 °F 19.3 °F 8.1 °F 43% 29.87 in 10.0 mi West 9.2 mph 18.4 mph N/A   Mostly Cloudy
9:53 PM 27.0 °F 18.7 °F 9.0 °F 47% 29.87 in 10.0 mi WSW 8.1 mph - N/A   Partly Cloudy
10:53 PM 27.0 °F 19.5 °F 9.0 °F 47% 29.87 in 10.0 mi WSW 6.9 mph - N/A   Clear
11:53 PM 27.0 °F 19.5 °F 10.0 °F 49% 29.87 in 10.0 mi WSW 6.9 mph 17.3 mph N/A   Clear